DW8675 Weather Reports


time (UTC)temp
C
wind
direction
speed
KPH
gust
KPH
rain 1hr
cm
rain 24hr
cm
rain mn
cm
humidity
%
barometer
mb
20260507000030 8 330 1.6 14.5 0.00 1.27 1.27 93 1001.8
20260506234502 9 242 4.8 12.9 0.00 1.27 1.27 93 1001.2
20260506233013 9 205 0.0 4.8 0.03 1.27 1.27 93 1001.0
20260506231502 10 272 1.6 6.4 0.03 1.27 1.27 93 1000.8
20260506230046 10 279 1.6 12.9 0.03 1.27 1.27 93 1000.6
20260506224519 11 278 3.2 12.9 0.03 1.27 1.27 93 1000.4
20260506223004 11 266 0.0 11.3 0.00 1.24 1.24 92 1000.1
20260506221558 12 258 0.0 8.0 0.03 1.24 1.24 92 999.9
20260506220020 12 262 0.0 0.0 0.30 1.24 1.24 93 999.9
20260506214544 13 274 0.0 3.2 0.36 1.27 1.24 93 999.8
20260506213018 13 239 0.0 9.7 0.38 1.27 1.24 93 999.8
20260506211552 15 255 0.0 12.9 0.38 1.24 1.22 95 999.5
20260506210042 15 359 0.0 4.8 0.13 0.97 0.94 94 999.5
20260506204520 15 181 3.2 14.5 0.13 0.99 0.89 94 999.4
20260506203046 15 183 1.6 12.9 0.10 0.97 0.86 93 999.5
20260506201526 15 161 4.8 12.9 0.13 0.94 0.84 93 999.6
20260506200059 15 149 1.6 14.5 0.15 0.91 0.81 93 999.8
20260506194537 15 150 6.4 12.9 0.20 0.86 0.76 93 999.9
20260506193015 15 183 6.4 19.3 0.23 0.84 0.71 93 1000.0
20260506191558 15 172 4.8 14.5 0.23 0.81 0.71 94 1000.2
20260506190020 14 186 1.6 17.7 0.23 0.76 0.66 94 1000.3
20260506184550 14 143 6.4 16.1 0.15 0.66 0.56 93 1000.5
20260506183030 14 145 6.4 14.5 0.15 0.61 0.51 93 1000.6
20260506181622 14 151 6.4 27.4 0.20 0.58 0.48 93 1000.6
20260506180035 14 152 4.8 17.7 0.20 0.53 0.43 93 1000.9
20260506174550 14 163 3.2 19.3 0.25 0.51 0.41 92 1001.1
20260506173028 14 146 9.7 24.1 0.20 0.43 0.33 92 1001.5
20260506171504 14 162 4.8 24.1 0.18 0.38 0.28 92 1001.6
20260506170038 14 145 6.4 16.1 0.15 0.33 0.23 92 1001.6
20260506164508 14 183 4.8 14.5 0.10 0.25 0.15 91 1001.6
20260506163045 14 205 4.8 14.5 0.08 0.23 0.13 90 1001.7
20260506161532 14 153 3.2 14.5 0.08 0.20 0.10 90 1001.9
20260506160023 14 168 4.8 14.5 0.08 0.18 0.08 89 1002.1
20260506154514 14 134 3.2 11.3 0.05 0.15 0.05 89 1002.0
20260506153107 14 153 4.8 11.3 0.05 0.15 0.05 88 1002.5
20260506151521 14 149 4.8 14.5 0.03 0.13 0.03 85 1003.0
20260506150004 15 138 4.8 11.3 0.00 0.10 0.00 82 1003.2
20260506144538 15 166 3.2 6.4 0.00 0.10 0.00 82 1003.2
20260506143014 15 198 3.2 11.3 0.00 0.10 0.00 81 1002.8
20260506141549 14 154 3.2 9.7 0.00 0.10 0.00 82 1002.9
20260506140041 14 189 4.8 9.7 0.00 0.10 0.00 82 1002.9
20260506134502 14 145 3.2 9.7 0.00 0.10 0.00 83 1002.8
20260506133049 13 149 4.8 11.3 0.00 0.10 0.00 83 1003.0
20260506131541 13 143 1.6 9.7 0.00 0.10 0.00 83 1003.1
20260506130016 13 169 1.6 9.7 0.00 0.10 0.00 84 1003.5
20260506124559 13 177 6.4 16.1 0.00 0.10 0.00 85 1003.6
20260506123042 13 216 3.2 8.0 0.00 0.10 0.00 85 1003.8
20260506121530 13 170 1.6 11.3 0.00 0.10 0.00 85 1003.4
20260506120018 13 144 1.6 8.0 0.00 0.10 0.00 85 1003.2
20260506114550 13 168 1.6 14.5 0.00 0.10 0.00 85 1003.4
20260506113031 13 164 1.6 6.4 0.00 0.10 0.00 84 1003.5
20260506111546 13 162 3.2 16.1 0.00 0.10 0.00 84 1003.6
20260506110038 13 223 3.2 14.5 0.00 0.10 0.00 84 1003.6
20260506104508 13 166 1.6 12.9 0.00 0.10 0.00 83 1003.5
20260506103055 13 166 4.8 9.7 0.00 0.10 0.00 83 1003.3
20260506101534 13 179 3.2 14.5 0.00 0.10 0.00 82 1003.3
20260506100020 12 169 1.6 11.3 0.00 0.10 0.00 83 1003.5
20260506094543 12 197 0.0 8.0 0.00 0.10 0.00 82 1003.7
20260506093018 12 166 3.2 8.0 0.00 0.10 0.00 83 1003.3
20260506091559 12 162 3.2 8.0 0.00 0.10 0.00 83 1003.5
20260506090032 12 111 0.0 0.0 0.00 0.10 0.00 82 1003.5
20260506084517 13 168 0.0 0.0 0.00 0.10 0.00 81 1003.4
20260506083004 13 169 0.0 0.0 0.00 0.10 0.00 80 1003.8
20260506081532 13 148 0.0 0.0 0.00 0.10 0.00 80 1003.8
20260506073058 14 95 0.0 0.0 0.00 0.10 0.00 79 1003.7
20260506071544 14 179 0.0 0.0 0.00 0.10 0.00 77 1003.9
20260506061545 15 118 1.6 3.2 0.00 0.10 0.00 79 1003.9
20260506044522 16 142 3.2 8.0 0.00 0.10 0.00 73 1003.8
20260506043002 17 215 4.8 11.3 0.00 0.10 0.00 69 1003.8
20260506041542 16 221 1.6 11.3 0.00 0.10 0.00 71 1003.5
20260506040026 16 195 1.6 14.5 0.00 0.10 0.00 72 1003.8
20260506034603 16 156 3.2 9.7 0.00 0.10 0.10 72 1003.6
20260506033026 17 179 3.2 12.9 0.00 0.10 0.10 71 1003.5
20260506031608 17 180 3.2 9.7 0.00 0.10 0.10 71 1003.5
20260506030046 17 170 4.8 11.3 0.00 0.10 0.10 71 1003.7
20260506024523 16 183 3.2 12.9 0.00 0.10 0.10 72 1003.6
20260506023050 16 191 1.6 8.0 0.00 0.10 0.10 72 1003.6
20260506021531 16 173 0.0 8.0 0.00 0.10 0.10 76 1003.6
20260506020054 16 154 1.6 16.1 0.00 0.10 0.10 75 1003.6
20260506014532 15 141 1.6 4.8 0.00 0.10 0.10 79 1003.3
20260506013009 15 131 1.6 8.0 0.00 0.10 0.10 78 1002.9
20260506011544 16 114 1.6 8.0 0.00 0.10 0.10 77 1003.0
20260506010030 15 153 0.0 0.0 0.00 0.10 0.10 78 1003.3
20260506004554 16 154 1.6 8.0 0.00 0.10 0.10 74 1002.8
20260506003035 16 190 0.0 0.0 0.00 0.10 0.10 74 1002.5
20260506001523 17 243 0.0 3.2 0.00 0.10 0.10 73 1002.6